AirNav   Bose ProFlight Series 2 Headset
 
 531 users online  

2FD3 Bayfront Health - St Petersburg Heliport
St Petersburg, Florida, USA

GOING TO ST PETERSBURG?


FAA INFORMATION EFFECTIVE 02 JANUARY 2020

Location

FAA Identifier: 2FD3
Lat/Long: 27-45-46.9000N 082-38-32.2800W
27-45.781667N 082-38.538000W
27.7630278,-82.6423000
(estimated)
Elevation: 128 ft. / 39 m (estimated)
Variation: 02W (1985)
Time zone: UTC -5 (UTC -4 during Daylight Saving Time)
Zip code: 33701

Heliport Operations

Heliport use: Private use, MEDICAL.
Activation date: 08/1987
Control tower: no
ARTCC: MIAMI CENTER
FSS: SAINT PETERSBURG FLIGHT SERVICE STATION
Attendance: CONTINUOUS
Wind indicator: lighted
Segmented circle: no
Lights: PERIMETER LGTS SS-SR. REQUEST FLOOD LGTS H1 & H2 - 463.050.

Heliport Communications

WX ASOS at SPG (0.8 nm E): 118.875 (727-821-4334)
WX ASOS at PIE (9 nm N): PHONE 727-531-3456
WX AWOS-3 at TPF (14 nm NE): 118.925 (813-251-6824)
WX ASOS at TPA (14 nm NE): PHONE 813-873-7228
WX AWOS-3P at CLW (14 nm NW): 119.225 (727-449-2184)

Nearby radio navigation aids

VOR radial/distance  VOR name  Freq  Var
PIEr171/9.0ST PETERSBURG VORTAC116.4005W
SRQr354/21.8SARASOTA VOR/DME117.0005W
LALr247/35.9LAKELAND VORTAC116.0001E

 
NDB name  Hdg/Dist  Freq  Var  ID
CAPOK172/14.336005WPI .--. ..

Heliport Services

Runway Information

Helipad H1

Dimensions: 28 x 28 ft. / 9 x 9 m
Surface: concrete
ROOFTOP.
Runway edge lights: PERI
AND FLOOD LGTS.
Latitude: 27-45.799167N
Longitude: 082-38.538833W
Elevation: 128.0 ft.
Traffic pattern: leftleft

Helipad H2

Dimensions: 28 x 32 ft. / 9 x 10 m
Surface: concrete
ROOFTOP.
Runway edge lights: PERI
AND FLOOD LGTS.
Latitude: 27-45.764167N
Longitude: 082-38.537000W
Elevation: 128.0 ft.
Traffic pattern: leftleft

Heliport Ownership and Management from official FAA records

Ownership: Privately-owned
Owner: BAYFRONT HEALTH - ST. PETERSBURG
701 6TH ST. SOUTH
ST. PETERSBURG, FL 33701
Phone (727) 823-1234
Manager: BILL CHRISTIE
701 6TH ST. SOUTH
ST. PETERSBURG, FL 33701
Phone (727) 823-1234
ADDNL CTC: PAUL CRUMP

Additional Remarks

FOR CD CTC TAMPA APCH AT 813-878-2528
A52-H1 15' BLDG 53' S, 27' BLDG 76' N, AND MISC BLDGS 6000' NE.

Instrument Procedures

There are no published instrument procedures at 2FD3.

Some nearby airports with instrument procedures:

KSPG - Albert Whitted Airport (1 nm E)
KMCF - MacDill Air Force Base (8 nm NE)
KPIE - St Pete-Clearwater International Airport (9 nm N)
KTPF - Peter O Knight Airport (14 nm NE)
KTPA - Tampa International Airport (14 nm NE)
KCLW - Clearwater Air Park (14 nm NW)
 
Loc | Ops | Rwys | IFR | FBO | Links
Com | Nav | Svcs | Stats | Notes


 
Area around 2FD3 (Bayfront Health - St Petersburg Heliport)
 
Road maps at: MapQuest Bing Google
 
Aerial photo
No photo
 
Sectional chart

 
Airport distance calculator
Flying to Bayfront Health - St Petersburg Heliport? Find the distance to fly.

From to 2FD3

Sunrise and sunset
Times for 18-Jan-2020
 Local
(UTC-5)
 Zulu
(UTC)
Morning civil twilight06:5811:58
Sunrise07:2312:23
Sunset17:5922:59
Evening civil twilight18:2423:24

Current date and time
Zulu (UTC)  18-Jan-2020 10:23:18
Local (UTC-5)  18-Jan-2020 05:23:18
 
METAR
KSPG 180953Z AUTO 08014KT 10SM OVC040 19/14 A3029 RMK AO2 SLP258 T01890144
KMCF 
8nm NE 
172155Z 10017G21KT 10SM FEW050 24/13 A3029 RMK AO2A SLP260
KPIE 
9nm N 
180953Z AUTO 09010KT 10SM OVC039 19/14 A3030 RMK AO2 SLP261 T01940139
KTPA 
14nm NE 
180953Z VRB03KT 10SM FEW041 17/12 A3031 RMK AO2 SLP265 T01670122 $
KTPF 
14nm NE 
180955Z AUTO 09008KT 10SM OVC110 17/13 A3031 RMK AO2
KCLW 
14nm NW 
180955Z AUTO 10005KT 10SM CLR 17/13 A3031 RMK AO2 PWINO
TAF
KMCF 
8nm NE 
180100Z 1801/1907 07012G18KT 9999 FEW030 QNH3029INS BECMG 1816/1817 11009KT 9999 SCT050 QNH3016INS TX25/1818Z TN18/1809Z
KPIE 
9nm N 
180524Z 1806/1906 08010KT P6SM SCT250 FM181500 13012KT P6SM SCT030 SCT250 FM182000 17008KT P6SM SCT040 SCT250
KTPA 
14nm NE 
180524Z 1806/1912 07007KT P6SM SCT250 FM181500 13009KT P6SM SCT030 SCT250 FM182100 16007KT P6SM SCT040 SCT250
NOTAMs
Click for the latest NOTAMs
NOTAMs are issued by the DoD/FAA and will open in a separate window not controlled by AirNav.

 

 
 

Would you like to see your business listed on this page?

 If your business provides an interesting product or service to pilots, flight crews, aircraft, or users of the Bayfront Health - St Petersburg Heliport, you should consider listing it here.  To start the listing process, click on the button below
 
Add a business
 

Other Pages about Bayfront Health - St Petersburg Heliport

Update a link
 
Copyright © AirNav, LLC. All rights reserved. Privacy Policy  Contact